Weather History for Gwinn, MI

Change the Weather History Date:

Sunday, December 9, 2012

  Actual Average (KESC) Record (KESC)
Temperature  
Mean Temperature 19 °F -  
Max Temperature 28 °F 31 °F 52 °F (1990)
Min Temperature 10 °F 19 °F -5 °F (1958)
Degree Days  
Heating Degree Days 46    
Moisture  
Dew Point 16 °F    
Average Humidity 83    
Maximum Humidity 87    
Minimum Humidity 69    
Precipitation  
Precipitation 0.00 in - - ()
Sea Level Pressure  
Sea Level Pressure 30.05 in    
Wind  
Wind Speed 2 mph (ENE)    
Max Wind Speed 12 mph    
Max Gust Speed -    
Visibility 8 miles    
Events Snow    
Averages and records for this station are not official NWS values.
T = Trace of Precipitation, MM = Missing Value Source: NWS Daily Summary

Daily Weather History Graph

Daily Weather History Graph

Search for Another Location

Airport:

Trip Planner

Search our weather history database for the weather conditions in past years. The results will help you decide how hot, cold, wet, or windy it might be!

Date:

Astronomy

Dec. 09, 2012 Rise Set
Actual Time 8:21 AM EST 5:02 PM EST
Civil Twilight 7:46 AM EST 5:37 PM EST
Nautical Twilight 7:08 AM EST 6:15 PM EST
Astronomical Twilight 6:32 AM EST 6:52 PM EST
Moon 3:42 AM EST (12/9) 2:18 PM EST (12/9)
Length of Visible Light 9h 50m
Length of Day
8h 41m
Waning Crescent, 19% of the Moon is Illuminated
Dec 9
Waning Crescent
Dec 13
New
Dec 20
First Quarter
Dec 28
Full
Jan 4
Last Quarter

Hourly Weather History & Observations

Time (EST) Temp. Windchill Dew Point Humidity Pressure Visibility Wind Dir Wind Speed Gust Speed Precip Events Conditions
12:16 AM 12.6 °F - 9.0 °F 85% 30.14 in 10.0 mi Calm Calm - N/A   Clear
12:35 AM 10.4 °F - 6.8 °F 85% 30.15 in 10.0 mi Calm Calm - N/A   Clear
12:56 AM 12.2 °F - 8.6 °F 85% 30.15 in 10.0 mi Calm Calm - N/A   Clear
1:16 AM 12.4 °F - 9.0 °F 86% 30.15 in 10.0 mi Calm Calm - N/A   Clear
1:36 AM 13.6 °F - 10.2 °F 86% 30.15 in 10.0 mi Calm Calm - N/A   Clear
1:56 AM 14.0 °F - 10.4 °F 86% 30.15 in 10.0 mi Calm Calm - N/A   Clear
2:15 AM 14.0 °F - 9.9 °F 84% 30.17 in 10.0 mi Calm Calm - N/A   Clear
2:36 AM 13.5 °F - 9.5 °F 84% 30.17 in 10.0 mi Calm Calm - N/A   Clear
2:56 AM 12.9 °F - 9.3 °F 86% 30.17 in 10.0 mi Calm Calm - N/A   Clear
3:15 AM 13.1 °F - 9.5 °F 86% 30.18 in 10.0 mi Calm Calm - N/A   Clear
3:36 AM 14.2 °F - 10.4 °F 85% 30.19 in 10.0 mi Calm Calm - N/A   Clear
3:55 AM 13.6 °F - 10.0 °F 86% 30.19 in 10.0 mi Calm Calm - N/A   Clear
4:16 AM 14.9 °F - 11.1 °F 85% 30.19 in 10.0 mi Calm Calm - N/A   Clear
4:36 AM 14.4 °F - 10.4 °F 84% 30.18 in 10.0 mi Calm Calm - N/A   Clear
4:55 AM 16.7 °F - 13.1 °F 86% 30.17 in 10.0 mi Calm Calm - N/A   Clear
5:16 AM 17.1 °F - 13.1 °F 84% 30.15 in 10.0 mi Calm Calm - N/A   Clear
5:36 AM 20.8 °F 14.4 °F 15.8 °F 81% 30.15 in 10.0 mi SE 4.6 mph - N/A   Clear
5:55 AM 20.3 °F - 15.4 °F 81% 30.17 in 10.0 mi Calm Calm - N/A   Clear
6:50 AM 19.4 °F - 14.0 °F 80% 30.15 in 10.0 mi Calm Calm - N/A   Clear
7:50 AM 21.2 °F 14.9 °F 15.8 °F 80% 30.15 in 10.0 mi ESE 4.6 mph - N/A   Scattered Clouds
8:50 AM 24.8 °F 19.1 °F 17.6 °F 74% 30.17 in 10.0 mi ESE 4.6 mph - N/A   Overcast
9:45 AM 24.8 °F 15.3 °F 17.6 °F 74% 30.15 in 10.0 mi East 9.2 mph - N/A   Overcast
10:50 AM 24.8 °F 17.9 °F 17.6 °F 74% 30.14 in 10.0 mi East 5.8 mph - N/A   Overcast
11:55 AM 26.6 °F 19.1 °F 19.4 °F 74% 30.11 in 10.0 mi East 6.9 mph - N/A   Overcast
12:50 PM 28.4 °F 22.2 °F 19.4 °F 69% 30.09 in 10.0 mi ENE 5.8 mph - N/A   Overcast
1:50 PM 28.4 °F 21.2 °F 21.2 °F 74% 30.05 in 10.0 mi ENE 6.9 mph - N/A   Overcast
2:40 PM 28.4 °F 19.1 °F 21.2 °F 74% 30.01 in 2.0 mi ENE 10.4 mph - N/A Snow Light Snow
2:50 PM 26.6 °F 17.5 °F 21.2 °F 80% 30.01 in 1.5 mi ENE 9.2 mph - N/A Snow Light Snow
3:50 PM 26.6 °F 19.1 °F 23.0 °F 86% 29.98 in 1.2 mi ENE 6.9 mph - N/A Snow Light Snow
4:55 PM 26.6 °F 18.2 °F 23.0 °F 86% 29.95 in 2.0 mi ENE 8.1 mph - N/A Snow Light Snow
5:50 PM 26.6 °F 16.2 °F 23.0 °F 86% 29.92 in 4.0 mi East 11.5 mph - N/A Snow Light Snow
6:50 PM 24.8 °F 14.6 °F 21.2 °F 86% 29.91 in 5.0 mi ENE 10.4 mph - N/A Snow Light Snow
7:10 PM 24.8 °F 16.1 °F 21.2 °F 86% 29.91 in 1.5 mi ENE 8.1 mph - N/A Snow Light Snow
7:55 PM 24.8 °F 16.9 °F 21.2 °F 86% 29.91 in 1.5 mi ENE 6.9 mph - N/A Snow Light Snow
8:55 PM 24.8 °F 19.1 °F 21.2 °F 86% 29.90 in 2.0 mi NE 4.6 mph - N/A Snow Light Snow
9:50 PM 24.8 °F 19.1 °F 21.2 °F 86% 29.87 in 2.0 mi East 4.6 mph - N/A Snow Light Snow
10:15 PM 24.4 °F 17.5 °F 21.2 °F 87% 29.84 in 2.5 mi East 5.8 mph - N/A Snow Light Snow
10:36 PM 24.3 °F 19.9 °F 21.0 °F 87% 29.83 in 3.0 mi East 3.5 mph - N/A Snow Light Snow
10:56 PM 24.1 °F 19.7 °F 20.8 °F 87% 29.82 in 3.0 mi ENE 3.5 mph - N/A Snow Light Snow
11:15 PM 23.9 °F 16.8 °F 20.3 °F 86% 29.81 in 5.0 mi ENE 5.8 mph - N/A   Overcast
11:36 PM 23.5 °F 15.4 °F 20.3 °F 87% 29.79 in 10.0 mi NE 6.9 mph - N/A   Overcast
11:56 PM 23.5 °F 16.4 °F 20.3 °F 87% 29.80 in 7.0 mi NNE 5.8 mph - N/A   Overcast